Location: Brno
(49.2000°N, 16.6330°E)
Time: 10:53:04
(UTC+02:00)

ISS - Pass Details

Date: 21 May 2021
Orbit: 417 x 422 km, 51.6° (Epoch: 13 June)

Event Time Altitude Azimuth Distance (km) Brightness Sun altitude
Rises 00:32:35 0° 289° (WNW) 2,370 0.4 -20.5°
Reaches altitude 10° 00:34:42 10° 288° (WNW) 1,505 -0.7 -20.5°
Enters shadow 00:37:16 49° 278° (W) 551 -3.2 -20.6°
